This is the latest recevied weather packets stored in our database for station/object I2HLY-3. If no packets are shown the sender has not sent any weather packets the latest 10 day(s).
| Time | Temp. | Humidity | Pressure | Rain* | Wind** | Luminosity | Snow |
|---|---|---|---|---|---|---|---|
| 1777486639 | 18.89° C | 70% | 1014.5 hPa | 0 mm | - | - | - |
| 1777485738 | 18.89° C | 68% | 1014.3 hPa | 0 mm | - | - | - |
| 1777484843 | 18.89° C | 68% | 1014 hPa | 0 mm | - | - | - |
| 1777483945 | 18.89° C | 67% | 1013.8 hPa | 0 mm | - | - | - |
| 1777483046 | 19.44° C | 67% | 1013.8 hPa | 0 mm | - | - | - |
| 1777482147 | 19.44° C | 66% | 1013.7 hPa | 0 mm | - | - | - |
| 1777481253 | 20.56° C | 67% | 1013.6 hPa | 0 mm | - | - | - |
| 1777480352 | 20.56° C | 66% | 1013.6 hPa | 0 mm | - | - | - |
| 1777479453 | 20.56° C | 65% | 1013.6 hPa | 0 mm | - | - | - |
| 1777478538 | 21.11° C | 63% | 1013.6 hPa | 0 mm | - | - | - |
| 1777477638 | 21.11° C | 56% | 1013.7 hPa | 0 mm | - | - | - |
| 1777476739 | 21.67° C | 58% | 1013.6 hPa | 0 mm | - | - | - |
| 1777475844 | 21.67° C | 59% | 1013.7 hPa | 0 mm | - | - | - |
| 1777474944 | 22.22° C | 59% | 1013.7 hPa | 0 mm | - | - | - |
| 1777474045 | 22.78° C | 55% | 1013.8 hPa | 0 mm | - | - | - |
| 1777473149 | 22.78° C | 53% | 1013.8 hPa | 0 mm | - | - | - |
| 1777472248 | 22.78° C | 53% | 1014 hPa | 0 mm | - | - | - |
| 1777471351 | 22.78° C | 57% | 1014 hPa | 0 mm | - | - | - |
| 1777470436 | 22.78° C | 55% | 1014.2 hPa | 0 mm | - | - | - |
| 1777469538 | 22.22° C | 56% | 1014.3 hPa | 0 mm | - | - | - |
| 1777468639 | 22.78° C | 59% | 1014.4 hPa | 0 mm | - | - | - |
| 1777467745 | 22.22° C | 59% | 1014.6 hPa | 0 mm | - | - | - |
| 1777466844 | 21.67° C | 60% | 1014.6 hPa | 0 mm | - | - | - |
| 1777465946 | 21.67° C | 61% | 1014.8 hPa | 0 mm | - | - | - |
| 1777465047 | 21.11° C | 63% | 1014.9 hPa | 0 mm | - | - | - |
* Rain latest hour (hover to see other rain measurements)
** Current wind speed in m/s (hover to see current wind gust speed)